星链-4649 (STARLINK-4649 )

导读

STARLINK-4649是美国SpaceX公司星链星座的卫星,于2022年9月19日发射。它属于星链低轨卫星互联网项目,该项目计划发射约4.2万颗卫星,旨在为全球提供高速低延迟互联网服务。该卫星运行在近地轨道,重量约297千克,目前在轨运行,助力实现偏远地区网络覆盖,不过星链项目也引发太空拥堵等争议。

Basic Information
目录编号:
53831
目录名称:
STARLINK-4649
国际标识:
2022-114P
轨道中心:
EARTH
卫星名称:
星链-4649
卫星全名:
星链-4649 (STARLINK-4649 )
卫星状态:
在轨 (已飞行1367 天)
发射日期:
2022-09-19 UTC
国别 :
美国 (US)
星等 :
--
Orbit Information
数据来源 国际轨道数据 AOE轨道数据
星历时间 2026-06-17T04:44:59+0800
13小时前
查看轨道信息
2026-06-12T04:00:00+0800
5天前
查看轨道信息
半长轴 6917.901km 6917.889km
偏心率 0.0001161 0.0001135
轨道倾角 53.159° 53.160°
近地点辐角 86.814° 69.976°
升交点赤经 218.797° 241.415°
平近点角 273.299° 306.480°
近地点 538.96km 538.966km
远地点 540.568km 540.538km
周期 95.438分钟 95.438分钟
每日圈数 15.088335 15.088375
Detailed Information
固有亮度:
5
最大亮度:
2.5
卫星平台:
Starlink v1.5
覆盖范围:
全球
运营商:
太空探索技术公司
运营商所在国:
美国
制造商(研发单位):
太空探索技术公司
制造商所在国:
美国
使用方式:
暂无
Satellite Introduction
星链(Starlink)计划是由太空探索技术公司(SpaceX)提出的一个巨型低轨卫星互联网星座项目,计划在2019年至2024年间在太空搭建由约1.2万颗卫星组成的“星链”网络,其中1584颗将部署在地球上空550千米处的近地轨道,并从2020年开始工作。该卫星仍在工作。
2D Orbit Map
3D Orbit Map
Orbit Altitude Analysis Chart
Orbit Inclination Analysis Chart
Orbit Comprehensive Analysis Chart
View Comprehensive Chart